Regional Weather Roundup
Issued by NWS Columbia, SC

Home | Current Version | Previous Version | Text Only | Print | Product List | Glossary On
Versions: 1 2 3 4 5 6 7 8 9 10 11 12 13 14 15 16 17 18 19 20 21 22 23 24 25 26 27 28 29 30 31 32 33 34 35 36 37 38 39 40 41 42 43 44 45 46 47 48 49 50
000
ASUS42 KCAE 281910
RWRCAE
REGIONAL WEATHER ROUNDUP
NATIONAL WEATHER SERVICE COLUMBIA SC
300 PM EDT SAT MAR 28 2015

NOTE: "FAIR" INDICATES FEW OR NO CLOUDS BELOW 12,000 FEET WITH NO
SIGNIFICANT WEATHER AND/OR OBSTRUCTIONS TO VISIBILITY.

NOT ALL STATIONS ARE QUALITY CONTROLLED BY THE NATIONAL
WEATHER SERVICE. USE DATA WITH CAUTION...ESPECIALLY
DEWPOINT OBSERVATIONS.

SCZ001>056-GAZ040-063>065-077-282000-
...UPSTATE SOUTH CAROLINA...

CITY           SKY/WX    TMP DP  RH WIND       PRES   REMARKS
ANDERSON       SUNNY     52  15  23 VRB5G17   30.07F
LIBERTY        CLEAR     53  15  22 SW7G17    30.05F
SPARTANBURG    SUNNY     52  10  19 N15       30.06F
CLEMSON        SUNNY     54   7  15 NW9       30.06F
GREENVILLE     SUNNY     51  14  22 SW9G16    30.06F
GREENWOOD      LGT RAIN  51  21  30 VRB6      30.09F
GREER          SUNNY     49  16  26 VRB5      30.05S
ROCK HILL      SUNNY     49  12  22 NW8G21    30.06F
CHESTER        CLEAR     52  14  22 NW8       30.07F
LAURENS        CLEAR     50  30  46 W3G16     30.07F


...CENTRAL SOUTH CAROLINA...

CITY           SKY/WX    TMP DP  RH WIND       PRES   REMARKS
COLUMBIA APT   MOSUNNY   54  23  30 W18       30.07S
COLUMBIA OWENS SUNNY     53  21  28 NW7G18    30.08F
DARLINGTON     MOSUNNY   52  25  35 W13G20    30.06S
FLORENCE       MOSUNNY   54  24  31 W14G20    30.04F
MCENTIRE ANGB  MOSUNNY   54  22  28 NW7G18    30.07S
ORANGEBURG     MOSUNNY   54  26  34 W15       30.07F
SUMTER SHAW    MOSUNNY   53  23  30 SW13      30.03F
NEWBERRY       CLEAR    N/A N/A N/A N6G18     30.10F
AIKEN          FAIR      50  23  34 W6G16     30.11S
BARNWELL       FAIR      55  27  33 W6        30.08F
MANNING        FAIR     N/A N/A N/A NW8       30.06F
CAMDEN         FAIR      50  21  32 W8G20     30.06F
LANCASTER      CLEAR     50  14  23 N8G17     30.06F
WINNSBORO      CLEAR     50  21  32 W10       30.06S


...EASTERN AND COASTAL SOUTH CAROLINA...

CITY           SKY/WX    TMP DP  RH WIND       PRES   REMARKS
MYRTLE BEACH   PTSUNNY   54  30  40 NW14G20   30.06S
N MYRTLE BCH   PTSUNNY   53  29  39 NW7G16    30.03S
CONWAY         FAIR      52  30  43 W6        30.04S
MARION         FAIR      50  28  43 NW5G20    30.05S
HARTSVILLE     FAIR      52  21  30 NW6       30.05S
FLORENCE       MOSUNNY   54  24  31 W14G20    30.04F
DARLINGTON     MOSUNNY   52  25  35 W13G20    30.06S
CHARLESTON APT MOSUNNY   57  25  29 W13G22    30.06F
WALTERBORO     PTCLDY    54  27  35 W13G23    30.08S
BEAUFORT       SUNNY     57  26  30 W13G22    30.07F


...EASTERN GEORGIA...

CITY           SKY/WX    TMP DP  RH WIND       PRES   REMARKS
AUGUSTA BUSH F SUNNY     55  20  25 W14G21    30.09F
AUGUSTA DANIEL SUNNY     55  19  24 NW14      30.09F
THOMSON        SUNNY     56  27  32 NW10G20   30.14F
WASHINGTON     FAIR      55  28  35 NW9G23    30.10S
CLAXTON        FAIR      55  32  41 NW14G20   30.10F
SYLVANIA       CLEAR     56  29  36 W9        30.09F
STATESBORO     SUNNY     57  27  32 NW13      30.09F
SAVANNAH       MOSUNNY   59  26  28 W14G23    30.08F


...SOUTHERN NORTH CAROLINA...

CITY           SKY/WX    TMP DP  RH WIND       PRES   REMARKS
CHARLOTTE      MOSUNNY   49  14  24 W13G18    30.06F
MONROE         SUNNY     49  16  26 NW9G16    30.04F
WADESBORO      PTCLDY    49  17  27 NW9G18    30.06F
ROCKINGHAM       N/A     48  20  32 NW14      30.05S
RUTHERFORDTON  SUNNY     47  13  25 NE8       30.06F
ASHEVILLE      SUNNY     42   9  25 N13G26    30.05F

$$


USA.gov is the U.S. government's official web portal to all federal, state and local government web resources and services.